This is the latest recevied weather packets stored in our database for station/object KQ4JKJ. If no packets are shown the sender has not sent any weather packets the latest 10 day(s).
| Time | Temp. | Humidity | Pressure | Rain* | Wind** | Luminosity | Snow |
|---|---|---|---|---|---|---|---|
| 1777399271 | 28.89° C | 69% | 1013.7 hPa | 0 mm | - | 757 W/m² | - |
| 1777398970 | 28.33° C | 69% | 1013.9 hPa | 0 mm | - | 608 W/m² | - |
| 1777398665 | 28.33° C | 70% | 1014 hPa | 0 mm | - | 809 W/m² | - |
| 1777398362 | 28.33° C | 68% | 1014 hPa | 0 mm | - | 809 W/m² | - |
| 1777398060 | 28.89° C | 70% | 1014 hPa | 0 mm | - | 906 W/m² | - |
| 1777397756 | 28.89° C | 69% | 1013.8 hPa | 0 mm | - | 774 W/m² | - |
| 1777397452 | 28.89° C | 67% | 1014.2 hPa | 0 mm | - | 834 W/m² | - |
| 1777397149 | 28.89° C | 69% | 1014.2 hPa | 0 mm | - | 857 W/m² | - |
| 1777396845 | 28.33° C | 68% | 1014.3 hPa | 0 mm | - | 865 W/m² | - |
| 1777396541 | 28.33° C | 69% | 1014.2 hPa | 0 mm | - | 774 W/m² | - |
| 1777396239 | 28.33° C | 69% | 1014.2 hPa | 0 mm | - | 807 W/m² | - |
| 1777395934 | 28.33° C | 70% | 1014.1 hPa | 0 mm | - | 794 W/m² | - |
| 1777395630 | 27.78° C | 71% | 1014.3 hPa | 0 mm | - | 788 W/m² | - |
| 1777395327 | 28.33° C | 70% | 1014.5 hPa | 0 mm | - | 228 W/m² | - |
| 1777395024 | 28.33° C | 69% | 1014.5 hPa | 0 mm | - | 875 W/m² | - |
| 1777394721 | 28.33° C | 70% | 1014.4 hPa | 0 mm | - | 817 W/m² | - |
| 1777394417 | 28.33° C | 69% | 1014.5 hPa | 0 mm | - | 792 W/m² | - |
| 1777394114 | 28.33° C | 69% | 1014.4 hPa | 0 mm | - | 791 W/m² | - |
| 1777393810 | 28.33° C | 67% | 1014.5 hPa | 0 mm | - | 875 W/m² | - |
| 1777393508 | 27.78° C | 71% | 1014.4 hPa | 0 mm | - | 380 W/m² | - |
| 1777393204 | 27.78° C | 69% | 1014.6 hPa | 0 mm | - | 238 W/m² | - |
| 1777392901 | 27.78° C | 70% | 1014.6 hPa | 0 mm | - | 845 W/m² | - |
| 1777392596 | 27.78° C | 70% | 1014.7 hPa | 0 mm | - | 785 W/m² | - |
| 1777392293 | 27.78° C | 72% | 1014.8 hPa | 0 mm | - | 862 W/m² | - |
| 1777391993 | 28.89° C | 69% | 1014.8 hPa | 0 mm | - | 207 W/m² | - |
* Rain latest hour (hover to see other rain measurements)
** Current wind speed in m/s (hover to see current wind gust speed)